Weather in Kant

Kyrgyzstan     42°53′21″N   74°51′05″E
temp.,
°C
wind,
m/s
gust,
m/s
humid.,
%
clouds,
%
prec.,
mm/h
press.,
hPa
HPBL,
m
24 june, thu
thu2400:00+16sse113552 0.0 101411
03:00+15ese34410 0.0 101337
06:00+15ese34405 0.0 101250
09:00+26sse22214 0.0 1010620
12:00+31wnw45130 0.0 10062421
15:00+34nw671213 0.0 10053622
18:00+32w5714100 0.0 10043555
21:00+21wnw344047 0.0 100862
25 june, fri
fri2500:00+18wnw3670100 0.4 1011148
03:00+15sw118895 1.1 101232
06:00+15ne23865 1.6 101181
09:00+20nnw226153 0.1 1011694
12:00+25nnw553862 0.1 10091716
15:00+27nw4634100 0.2 10072624
18:00+24sw674554 0.3 1008601
21:00+20sw464440 0.0 1010119
26 june, sat
sat2600:00+15se22725 0.0 101115
03:00+12wsw01770 0.0 101110
06:00+12e116821 0.0 101111
09:00+20wnw2237100 0.0 1011540
12:00+26nw44223 0.0 10101788
15:00+29wnw66175 0.0 10092759
18:00+29wnw77145 0.0 10102857
21:00+20nne35270 0.0 101261
27 june, sun
sun2700:00+15ese33400 0.0 101422
03:00+14e33410 0.0 101323
06:00+14e23392 0.0 101228
09:00+25nne23200 0.0 1011584
12:00+32wnw32110 0.0 10081723
15:00+35wnw5590 0.0 10062502
18:00+34nnw54100 0.0 10062413
21:00+24ne35202 0.0 100849
28 june, mon
mon2800:00+20e33330 0.0 101016
03:00+19e22320 0.0 100915
06:00+18e12300 0.0 100912
09:00+29n11160 0.0 1008470
12:00+36nnw4390 0.0 10051717
15:00+39nnw5581 0.0 10033450
18:00+36w881190 0.0 10031500
21:00+27nne222225 0.0 100515